Location: Adamstown South Public School
(32.9318°S, 151.7012°E)
Time: 21:12:08
(UTC+00:00)

Meteor 1-19 Rocket - Pass Details

Date: 07 June 2020
Orbit: 812 x 922 km, 81.2° (Epoch: 05 July)

Event Time Altitude Azimuth Distance (km) Brightness Sun altitude
Rises 08:11:38 0° 189° (S) 3,368 7.2 -16.0°
Reaches altitude 10° 08:14:02 10° 188° (S) 2,432 6.5 -16.5°
Maximum altitude 08:19:32 88° 277° (W) 835 4.1 -17.6°
Drops below altitude 10° 08:25:04 10° 6° (N) 2,444 6.7 -18.8°
Sets 08:27:29 0° 6° (N) 3,385 7.5 -19.2°
